ROMMA est une association bénévole à but non lucratif. Votre soutien est indispensable : ADHERER à ROMMA ou FAIRE un DON

Lyon - (69, Rhône)

Plaine lyonnaise (169 m)   Longitude: 04° 49' 55" E   Latitude: 45° 43' 50" N Station partenaire n°124
 

Détail journalier du     <<     >>

Température Precipitation Humidité Pression Vent Dir Rafale Dir. rafale Ensol.
Heure (°C) (mm) (%) (hPa) (km/h) (km/h) (min)
01:00 12.609410222N6N0
02:00 12.609510222NO6NE0
03:00 12.409510222NO6O0
04:00 12.409410212NO6NO0
05:00 12.309410212NO8N0
06:00 12.209410213NO13NO0
07:00 12.309410212NO8NO0
08:00 12.409410212N6O0
09:00 12.509410223SO8SO0
10:00 13.009310223NO8NO0
11:00 13.30.39310222NO6NO0
12:00 13.60.59210224NO13NE0
13:00 13.809210215N16N0
14:00 14.209110204N18N0
15:00 14.608910195NO16NO0
16:00 15.108910195NO18NE0
17:00 15.108710184N18NE0
18:00 14.808810194NO13NO0
19:00 14.708910183NO14NO0
20:00 14.709010183NO14NO0
21:00 14.709110184NE14NO0
22:00 14.609110182SO8NE0
23:00 14.309210172SO8SO0
minuit 14.209210171SO3---0

Graphique du 22-10-2019

 

Serveur OMMA